EW5495 Weather Reports


time (UTC)temp
F
wind
direction
speed
knots
gust
knots
rain 1hr
in
rain 24hr
in
rain mn
in
humidity
%
barometer
mb
20260509024303 74 122 1.7 7.0 0.00 0.00 0.00 51 1023.8
20260509023304 74 85 1.7 5.2 0.00 0.00 0.00 51 1023.9
20260509021303 73 9 2.6 7.0 0.00 0.00 0.00 52 1024.1
20260509020303 73 36 2.6 4.3 0.00 0.00 0.00 52 1024.6
20260509015306 73 180 1.7 5.2 0.00 0.00 0.00 52 1024.4
20260509014305 72 321 1.7 3.5 0.00 0.00 0.00 53 1024.7
20260509011303 69 331 0.0 3.5 0.00 0.00 0.00 57 1025.0
20260509010302 68 297 0.9 4.3 0.00 0.00 0.00 56 1025.3
20260509004304 68 255 1.7 3.5 0.00 0.00 0.00 56 1025.4
20260509003303 67 266 1.7 3.5 0.00 0.00 0.00 57 1025.4
20260509002306 66 273 0.9 4.3 0.00 0.00 0.00 57 1025.5
20260509001304 66 274 2.6 5.2 0.00 0.00 0.00 55 1025.5
20260509000304 66 183 1.7 5.2 0.00 0.00 0.00 56 1025.7
20260508235306 65 255 3.5 5.2 0.00 0.00 0.00 57 1025.5
20260508233303 62 253 1.7 4.3 0.00 0.00 0.00 60 1025.5
20260508231310 61 293 2.6 7.0 0.00 0.00 0.00 62 1025.5
20260508230305 60 248 0.9 7.0 0.00 0.00 0.00 64 1025.4
20260508225306 59 256 1.7 7.8 0.00 0.00 0.00 67 1025.0
20260508224302 57 258 3.5 5.2 0.00 0.00 0.00 68 1025.0
20260508223304 56 253 1.7 5.2 0.00 0.00 0.00 69 1024.8
20260508221304 55 282 2.6 5.2 0.00 0.00 0.00 72 1024.6
20260508220303 54 258 2.6 5.2 0.00 0.00 0.00 73 1024.9
20260508214303 53 266 2.6 4.3 0.00 0.00 0.00 75 1024.2
20260508213303 53 279 1.7 5.2 0.00 0.00 0.00 77 1024.0
20260508212306 52 290 0.0 5.2 0.00 0.00 0.00 79 1023.9
20260508211304 51 298 2.6 4.3 0.00 0.00 0.00 81 1023.8
20260508210305 51 300 1.7 4.3 0.00 0.00 0.00 81 1024.1
20260508205306 51 300 1.7 4.3 0.00 0.00 0.00 83 1023.7
20260508203304 51 320 2.6 4.3 0.00 0.00 0.00 85 1023.3
20260508202306 50 352 1.7 3.5 0.00 0.00 0.00 85 1023.5
20260508201306 50 352 0.9 4.3 0.00 0.00 0.00 85 1023.4
20260508200302 51 3 0.9 1.7 0.00 0.00 0.00 85 1023.5
20260508195306 51 3 1.7 1.7 0.00 0.00 0.00 85 1023.0
20260508194303 51 3 1.7 3.5 0.00 0.00 0.00 84 1022.9
20260508193303 51 3 0.9 1.7 0.00 0.00 0.00 84 1022.7
20260508191305 51 3 1.7 3.5 0.00 0.00 0.00 83 1022.5
20260508185306 51 3 1.7 1.7 0.00 0.00 0.00 82 1022.3
20260508184303 52 3 0.9 3.5 0.00 0.00 0.00 81 1022.4
20260508182306 52 3 1.7 3.5 0.00 0.00 0.00 81 1022.3
20260508181309 52 6 0.0 1.7 0.00 0.00 0.00 80 1022.2
20260508180303 52 6 1.7 1.7 0.00 0.00 0.00 80 1022.3
20260508174303 52 6 0.0 4.3 0.00 0.00 0.00 78 1022.1
20260508173303 52 10 0.9 3.5 0.00 0.00 0.00 78 1022.1
20260508172307 52 10 0.0 0.9 0.00 0.00 0.00 78 1022.1
20260508171304 52 10 0.9 0.9 0.00 0.00 0.00 75 1022.1
20260508165306 53 10 0.9 1.7 0.00 0.00 0.00 74 1021.8
20260508164304 53 10 0.0 3.5 0.00 0.00 0.00 73 1021.7
20260508163304 52 13 0.9 3.5 0.00 0.00 0.00 74 1021.8
20260508160303 52 16 0.9 1.7 0.00 0.00 0.00 73 1021.9
20260508155306 52 16 0.9 1.7 0.00 0.00 0.00 72 1021.7
20260508153305 52 16 0.0 0.9 0.00 0.00 0.00 73 1021.9
20260508152305 53 16 0.0 0.0 0.00 0.00 0.00 72 1021.8
20260508151305 53 16 0.0 0.0 0.00 0.00 0.00 71 1021.7
20260508150305 53 16 0.0 0.9 0.00 0.00 0.00 72 1021.9
20260508145306 53 16 0.9 1.7 0.00 0.00 0.00 73 1021.5
20260508143302 53 16 0.9 1.7 0.00 0.00 0.00 73 1021.6
20260508142306 53 16 0.0 0.9 0.00 0.00 0.00 76 1021.4
20260508141302 53 16 0.0 0.9 0.00 0.00 0.00 77 1021.7
20260508140305 53 16 0.0 0.0 0.00 0.00 0.00 75 1021.8
20260508135306 53 16 0.0 0.0 0.00 0.00 0.00 74 1021.4
20260508134305 54 16 0.0 0.9 0.00 0.00 0.00 75 1021.5
20260508133306 54 16 1.7 1.7 0.00 0.00 0.00 76 1021.4
20260508132306 54 16 1.7 1.7 0.00 0.00 0.00 77 1021.3
20260508131304 53 16 0.9 0.9 0.00 0.00 0.00 79 1021.2
20260508130305 53 16 0.0 0.0 0.00 0.00 0.00 79 1021.2
20260508125306 54 16 0.0 0.0 0.00 0.00 0.00 77 1021.0
20260508124303 54 16 0.0 0.0 0.00 0.00 0.00 74 1021.0
20260508123306 54 16 0.9 1.7 0.00 0.00 0.00 74 1021.1
20260508122306 54 16 0.0 0.9 0.00 0.00 0.00 75 1021.1
20260508120304 55 16 0.0 0.0 0.00 0.00 0.00 79 1021.4
20260508115306 55 16 0.0 0.9 0.00 0.00 0.00 76 1021.2
20260508113305 55 16 0.0 0.9 0.00 0.00 0.00 73 1021.3
20260508111304 56 16 0.0 0.9 0.00 0.00 0.00 71 1021.1
20260508110303 56 16 0.9 1.7 0.00 0.00 0.00 72 1021.3
20260508105306 56 16 0.0 0.9 0.00 0.00 0.00 70 1021.0
20260508104303 57 16 0.9 1.7 0.00 0.00 0.00 70 1021.1
20260508103305 57 16 0.0 0.9 0.00 0.00 0.00 69 1020.9
20260508102306 57 74 0.9 1.7 0.00 0.00 0.00 68 1021.0
20260508101304 58 50 0.0 1.7 0.00 0.00 0.00 67 1021.0
20260508094305 59 50 0.0 1.7 0.00 0.00 0.00 61 1020.6
20260508093303 59 50 0.9 0.9 0.00 0.00 0.00 63 1020.5
20260508090304 60 50 1.7 1.7 0.00 0.00 0.00 57 1020.5
20260508084304 60 47 1.7 3.5 0.00 0.00 0.00 54 1019.9
20260508083304 61 47 0.9 1.7 0.00 0.00 0.00 54 1019.8
20260508081304 62 47 0.9 3.5 0.00 0.00 0.00 51 1019.6
20260508080304 63 47 0.0 0.9 0.00 0.00 0.00 52 1019.4
20260508075308 64 47 0.0 0.9 0.00 0.00 0.00 48 1019.1
20260508074303 64 47 0.9 1.7 0.00 0.00 0.00 47 1019.0
20260508073303 65 47 0.9 1.7 0.00 0.00 0.00 43 1019.0
20260508071305 68 23 0.9 1.7 0.00 0.00 0.00 36 1018.9
20260508070303 69 26 0.9 1.7 0.00 0.00 0.00 34 1019.1
20260508065307 71 19 0.9 0.9 0.00 0.00 0.00 33 1018.9
20260508063303 73 19 0.0 1.7 0.00 0.00 0.00 31 1018.6
20260508062306 73 19 0.9 3.5 0.00 0.00 0.00 30 1018.6
20260508061306 74 19 1.7 3.5 0.00 0.00 0.00 27 1018.6
20260508060303 74 20 1.7 3.5 0.00 0.00 0.00 28 1018.8
20260508055306 73 20 0.0 4.3 0.00 0.00 0.00 28 1018.6
20260508054303 74 5 2.6 4.3 0.00 0.00 0.00 26 1018.8
20260508052307 73 276 1.7 5.2 0.00 0.00 0.00 26 1018.9
20260508051304 72 279 3.5 7.8 0.00 0.00 0.00 27 1018.9
20260508050304 72 337 2.6 7.0 0.00 0.00 0.00 27 1019.1
20260508045306 72 353 2.6 7.8 0.00 0.00 0.00 26 1019.1
20260508044304 72 279 2.6 7.8 0.00 0.00 0.00 28 1019.2
20260508043303 71 334 4.3 8.7 0.00 0.00 0.00 27 1019.1
20260508041305 71 267 2.6 10.4 0.00 0.00 0.00 28 1019.2
20260508040304 71 269 2.6 10.4 0.00 0.00 0.00 27 1019.7
20260508035306 71 238 4.3 10.4 0.00 0.00 0.00 26 1019.5
20260508034303 71 239 3.5 5.2 0.00 0.00 0.00 27 1019.6
20260508033303 70 249 2.6 7.8 0.00 0.00 0.00 29 1019.7
20260508032306 70 325 7.0 10.4 0.00 0.00 0.00 28 1019.9
20260508031305 70 265 3.5 7.0 0.00 0.00 0.00 28 1020.0
20260508025306 69 259 6.1 8.7 0.00 0.00 0.00 29 1020.2